Home   Weather   Riehen   Past weeks

Flag for Switzerland Past Weather in Riehen, Basel-Stadt, Switzerland — Yesterday and Last 2 Weeks

Now
29 °F

Passing clouds.


Feels Like: 23 °F
Forecast: 22 / 39 °F
Wind: 5 mph from Northwest

Location: Bale-Mulhouse

Current Time: Dec 6, 2016 at 1:59:02 am

Latest Report: Dec 6, 2016 at 1:00 am


Visibility: 2 mi

Pressure: 30.44 "Hg

Humidity: 96%

Dew Point: 28 °F

Location of RiehenLocation

Past Weather in Riehen — Graph

°F

Riehen Temperature Yesterday

Maximum temperature yesterday: 43 °F (at 3:00 pm)
Minimum temperature yesterday: 22 °F (at 5:00 am)
Average temperature yesterday: 29 °F

High & Low Weather Summary for the Past Weeks

 TemperatureHumidityPressure
High53 °F (Nov 22, 2:00 pm)100% (Nov 24, 1:00 am)30.63 "Hg (Nov 24, 1:00 am)
Low21 °F (Nov 29, 4:00 am)43% (Nov 28, 2:00 pm)29.63 "Hg (Nov 21, 3:00 pm)
Average37 °F88%30.18 "Hg
* Reported Nov 21 12:00 am — Dec 6 12:00 am, Riehen, Weather by CustomWeather, © 2016

Note: Actual official high and low records may vary slightly from our data, if they occured in-between our weather recording intervals... More about our weather records

Advertising

Riehen Weather History for the Previous 24 Hours

Scroll right to see more
 ConditionsComfort  
Time TempWeatherWind HumidityBarometerVisibility
12:00 am
Tue, Dec 6
29 °FFog.5 mph96%30.43 "Hg1 mi
11:00 pm
Mon, Dec 5
30 °FFog.6 mph96%30.43 "Hg1 mi
10:00 pm30 °FFog.3 mph96%30.42 "Hg2 mi
9:00 pm29 °FFog.2 mph98%30.42 "Hg1 mi
8:00 pm29 °FFog.6 mph96%30.42 "Hg1 mi
7:00 pm29 °FFog.3 mph96%30.41 "Hg1 mi
6:00 pm31 °FPassing clouds.6 mph91%30.40 "Hg3 mi
5:00 pm35 °FPassing clouds.3 mph86%30.38 "Hg4 mi
4:00 pm36 °FScattered clouds.6 mph79%30.36 "Hg6 mi
3:00 pm43 °FPassing clouds.6 mph64%30.34 "Hg7 mi
2:00 pm43 °FPassing clouds.6 mph65%30.34 "Hg7 mi
1:00 pm41 °FPassing clouds.6 mph68%30.35 "Hg6 mi
12:00 pm39 °FScattered clouds.8 mph76%30.37 "Hg6 mi
11:00 am33 °FScattered clouds.1 mph97%30.40 "Hg3 mi
10:00 am29 °FFog.2 mph99%30.40 "Hg2 mi
9:00 am23 °FFog.3 mph95%30.40 "Hg2 mi
8:00 am22 °FCold.2 mph94%30.40 "Hg2 mi
7:00 am22 °FFog.3 mph95%30.39 "Hg2 mi
6:00 am22 °FFog.2 mph94%30.38 "Hg2 mi
5:00 am22 °FFog.2 mph94%30.38 "Hg2 mi
4:00 am23 °FCold.2 mph95%30.38 "Hg2 mi
3:00 am23 °FCold.3 mph94%30.38 "Hg2 mi
2:00 am24 °FCold.3 mph95%30.37 "Hg2 mi
1:00 am24 °FCold.No wind94%30.38 "Hg1 mi
Weather by CustomWeather, © 2016

See weather overviewHow to use our weather pages